World > North America > United States > Illinois > Harristown

Hourly Harristown, IL Regional Weather

Feedback E-mail the Weather

Quick WX

Harristown, IL Weather Maps

°F °C°F °C
Harristown Weather Map
UTC Time: 8/13/2022, 17:30
Your Time:

Harristown, IL Regional Weather

Expires:202208131800;;035664
ASUS43 KLOT 131710
RWRIL 

ILLINOIS REGIONAL WEATHER ROUNDUP
NATIONAL WEATHER SERVICE CHICAGO/ROMEOVILLE IL
1200 PM CDT SAT AUG 13 2022

NOTE: "FAIR" INDICATES FEW OR NO CLOUDS BELOW 12,000 FEET WITH NO
SIGNIFICANT WEATHER AND/OR OBSTRUCTIONS TO VISIBILITY.

* THESE STATIONS ARE NOT UNDER NWS QUALITY CONTROL. THEY ALSO MAY NOT
  REPORT WEATHER SUCH AS PRECIPITATION OR FOG.


ILZ028>032-037-038-041>044-048-051>054-059>061-131800-
CENTRAL ILLINOIS
  
CITY           SKY/WX    TMP DP  RH WIND       PRES   REMARKS
PONTIAC        CLOUDY    74  64  69 S10G16    30.10F                  
BLOOMINGTON    CLOUDY    74  60  61 SW13      30.12F                  
DECATUR        MOSUNNY   78  61  55 SW10      30.13F HX  80           
PEORIA         PTSUNNY   79  62  56 S15       30.07F HX  80           
LACON*         CLOUDY    73  65  75 S10       30.05F                  
LINCOLN*       PTSUNNY   78  63  60 S9        30.11F                  
SPRINGFIELD    SUNNY     79  63  57 S8G17     30.11F HX  80           
TAYLORVILLE    SUNNY     77  63  61 SW9       30.12F                  
$$


SKY/WX - Weather  TMP - Temperature  DP - Dew Point  RH - Humidity
WIND - Wind Direction/Speed PRES - Barometric Pressure VSB - Visibility
WCI - Wind Chill Index E13G22 Wind - East Wind 13 mph/Gusts of 22 mph

Trending Headlines

Harristown Radar Loop



Harristown Quick Facts


National Two Day Weather Forecast


E-mail the Harristown Weather Forecast

Voice your opinion or tell us about page issues...